2023/05/09 00:00:00,54.9, 6.4
2023/05/09 00:10:00,51.8, 6.3
2023/05/09 00:20:00,51.8, 5.9
2023/05/09 00:30:00,51.8, 5.5
2023/05/09 00:40:00,51.8, 5.5
2023/05/09 00:50:00,51.8, 5.4
2023/05/09 01:00:00,51.7, 5.3
2023/05/09 01:10:00,51.7, 5.7
2023/05/09 01:20:00,51.7, 5.6
2023/05/09 01:30:00,51.6, 5.6
2023/05/09 01:40:00,51.7, 5.8
2023/05/09 01:50:00,51.6, 5.7
2023/05/09 02:00:00,51.5, 5.7
2023/05/09 02:10:00,51.6, 5.8
2023/05/09 02:20:00,51.6, 5.6
2023/05/09 02:30:00,51.4, 5.3
2023/05/09 02:40:00,51.3, 5.5
2023/05/09 02:50:00,50.9, 5.5
2023/05/09 03:00:00,49.6, 5.4
2023/05/09 03:10:00,86.6, 5.7
2023/05/09 03:20:00, 0.0, 5.8
2023/05/09 03:30:00, 0.7, 5.7
2023/05/09 03:40:00, 1.5, 5.8
2023/05/09 03:50:00, 0.8, 5.9
2023/05/09 04:00:00, 0.9, 6.0
2023/05/09 04:10:00, 0.9, 5.9
2023/05/09 04:20:00, 0.8, 6.0
2023/05/09 04:30:00, 5.8, 5.8
2023/05/09 04:40:00, 0.0, 6.0
2023/05/09 04:50:00, 0.0, 5.9
2023/05/09 05:00:00, 0.0, 5.8
2023/05/09 05:10:00, 0.0, 6.0
2023/05/09 05:20:00, 0.0, 5.9
2023/05/09 05:30:00, 0.0, 6.1
2023/05/09 05:40:00, 0.1, 6.2
2023/05/09 05:50:00, 0.7, 6.2
2023/05/09 06:00:00, 0.2, 6.5
2023/05/09 06:10:00, 0.0, 6.4
2023/05/09 06:20:00, 0.0, 6.8
2023/05/09 06:30:00, 0.0, 7.1
2023/05/09 06:40:00, 0.0, 7.5
2023/05/09 06:50:00, 0.0, 8.2
2023/05/09 07:00:00, 0.0, 8.5
2023/05/09 07:10:00,14.2, 9.3
2023/05/09 07:20:00,44.2, 9.6
2023/05/09 07:30:00,59.1,10.6
2023/05/09 07:40:00,45.9,10.9
2023/05/09 07:50:00,44.2,11.9
2023/05/09 08:00:00,45.5,12.8
2023/05/09 08:10:00,47.0,15.3
2023/05/09 08:20:00,46.6,14.4
2023/05/09 08:30:00,47.9,16.2
2023/05/09 08:40:00,49.7,17.2
2023/05/09 08:50:00,48.5,17.4
2023/05/09 09:00:00,45.9,18.4
2023/05/09 09:10:00,46.4,19.5
2023/05/09 09:20:00,46.2,18.7
2023/05/09 09:30:00,47.5,20.2
2023/05/09 09:40:00,47.8,20.4
2023/05/09 09:50:00,50.2,20.8
2023/05/09 10:00:00,46.9,21.3
2023/05/09 10:10:00,50.6,20.5
2023/05/09 10:20:00,51.9,21.0
2023/05/09 10:30:00,48.4,21.9
2023/05/09 10:40:00,46.6,21.7
2023/05/09 10:50:00,47.5,22.2
2023/05/09 11:00:00,45.2,23.0
2023/05/09 11:10:00,48.0,22.3
2023/05/09 11:20:00,46.2,22.3
2023/05/09 11:30:00,49.0,22.8
2023/05/09 11:40:00,43.7,22.6
2023/05/09 11:50:00,44.3,22.5
2023/05/09 12:00:00,49.4,22.7
2023/05/09 12:10:00,33.9,22.7
2023/05/09 12:20:00,---,22.9
2023/05/09 12:30:00,37.5,23.0
2023/05/09 12:40:00,36.3,22.7
2023/05/09 12:50:00,36.7,22.3
2023/05/09 13:00:00,---,22.5
2023/05/09 13:10:00,37.3,21.8
2023/05/09 13:20:00,44.0,22.3
2023/05/09 13:30:00,---,21.2
2023/05/09 13:40:00,---,20.6
2023/05/09 13:50:00,44.6,21.6
2023/05/09 14:00:00,44.4,21.8
2023/05/09 14:10:00,38.8,21.3
2023/05/09 14:20:00,33.1,22.0
2023/05/09 14:30:00,28.0,22.3
2023/05/09 14:40:00,31.3,22.6
2023/05/09 14:50:00,39.8,22.7
2023/05/09 15:00:00,42.8,23.0
2023/05/09 15:10:00,---,23.1
2023/05/09 15:20:00,43.6,23.2
2023/05/09 15:30:00,41.6,23.6
2023/05/09 15:40:00,36.8,23.5
2023/05/09 15:50:00,33.7,23.0
2023/05/09 16:00:00,20.0,23.3
2023/05/09 16:10:00, 9.5,23.8
2023/05/09 16:20:00,14.7,24.1
2023/05/09 16:30:00, 9.1,24.2
2023/05/09 16:40:00,21.3,23.7
2023/05/09 16:50:00, 8.6,23.8
2023/05/09 17:00:00, 4.7,22.6
2023/05/09 17:10:00, 4.0,23.0
2023/05/09 17:20:00, 5.0,22.7
2023/05/09 17:30:00, 4.6,22.8
2023/05/09 17:40:00, 4.7,23.0
2023/05/09 17:50:00, 3.4,22.3
2023/05/09 18:00:00, 3.1,21.0
2023/05/09 18:10:00, 1.6,20.3
2023/05/09 18:20:00, 0.7,18.7
2023/05/09 18:30:00,---,16.8
2023/05/09 18:40:00,50.1,14.7
2023/05/09 18:50:00,49.8,13.4
2023/05/09 19:00:00,48.5,12.8
2023/05/09 19:10:00,45.8,12.2
2023/05/09 19:20:00,43.7,11.7
2023/05/09 19:30:00,43.4,11.3
2023/05/09 19:40:00,39.9,10.7
2023/05/09 19:50:00,45.5,10.5
2023/05/09 20:00:00,32.5,10.4
2023/05/09 20:10:00,---,10.6
2023/05/09 20:20:00,---,10.4
2023/05/09 20:30:00, 1.9,10.5
2023/05/09 20:40:00, 1.3,10.5
2023/05/09 20:50:00, 0.7,10.0
2023/05/09 21:00:00, 0.4, 9.6
2023/05/09 21:10:00, 0.4, 9.6
2023/05/09 21:20:00, 0.4, 9.9
2023/05/09 21:30:00, 0.2, 9.6
2023/05/09 21:40:00, 0.0, 9.4
2023/05/09 21:50:00, 0.0, 9.1
2023/05/09 22:00:00, 0.0, 8.9
2023/05/09 22:10:00,---, 9.1
2023/05/09 22:20:00, 0.1, 8.5
2023/05/09 22:30:00, 0.1, 8.3
2023/05/09 22:40:00, 0.1, 8.5
2023/05/09 22:50:00, 0.2, 8.7
2023/05/09 23:00:00, 0.3, 8.5
2023/05/09 23:10:00, 0.3, 8.5
2023/05/09 23:20:00, 1.1, 8.2
2023/05/09 23:30:00, 0.7, 8.4
2023/05/09 23:40:00, 0.8, 8.4
2023/05/09 23:50:00, 0.9, 7.9
